SCP
1 1 0 0 0 0 0 0 0 0 0 0 0 0 0 0 0 0 0 0 0 0
1 1 1 0 0 0 0 1 1 0 0 0 0 0 0 0 0 0 0 0 0 0
1 0 1 0 0 0 0 0 0 0 0 0 0 0 0 0 0 0 0 0 0 0
1 1 0 0 0 0 0 0 0 0 0 0 0 0 0 0 0 0 0 0 0 0
0 0 0 0 0 0 0 0 0 0 0 0 0 0 0 0 0 0 0 0 0 0
-0 0 0 0 0 0 0 0 0 0 0 0 0 0 0 0 0 0 0 0 0 0
0 0 0 0 0 0 0 0 0 0 0 0 0 0 0 0 0 0 0 0 0 0
0 0 0 0 0 0 0 0 0 0 0 0 0 0 0 0 0 0 0 0 0 0
0 0 0 0 0 0 0 0 0 0 0 0 0 0 0 0 0 0 0 0 0 0
0 0 0 0 0 0 0 0 0 0 0 0 0 0 0 0 0 0 0 0 0 0
0 0 0 0 0 0 0 0 0 0 0 0 0 0 0 0 0 0 0 0 0 0
0 0 0 0 0 0 0 0 0 0 0 0 0 0 0 0 0 0 0 0 0 0
0 0 0 0 0 0 0 0 0 0 0 0 0 0 0 0 0 0 0 0 0 0
0 0 0 0 0 0 0 0 0 0 0 0 0 0 0 0 0 0 0 0 0 0
Wind_Speed_500mb
43 33 29 37 36 35 34 36 31 29 31 38 40 42 41 48 45 43 48 48 48 56
35 42 30 39 44 34 34 34 32 39 36 36 43 47 51 51 52 52 52 54 57 60
32 28 30 44 44 35 32 23 35 32 32 38 40 38 39 41 44 48 50 50 54 55
25 35 42 44 44 32 27 32 26 21 19 23 27 34 31 30 31 35 40 40 41 42
44 30 32 37 22 22 23 21 20 26 29 32 32 34 31 31 35 32 30 31 33 32
30 27 26 14 14 19 13 16 21 23 26 30 32 35 33 28 30 31 35 35 38 42
8 10 9 11 10 8 14 24 31 39 43 42 44 36 34 32 31 31 31 32 35 35
14 18 11 9 5 16 26 31 32 37 44 51 43 27 31 30 32 37 38 36 36 38
18 15 12 24 27 23 23 33 38 44 41 23 26 32 28 37 40 38 35 37 36 37
18 14 11 11 17 25 35 34 30 29 20 25 32 32 34 43 43 43 37 41 40 40
2 9 14 18 19 27 30 25 29 30 29 34 43 41 39 41 40 35 43 47 41 46
7 10 11 15 23 27 31 27 27 26 31 39 39 37 40 43 48 46 50 49 44 44
16 19 22 27 26 31 26 30 27 33 39 37 45 37 48 52 56 55 46 39 43 44
22 23 25 27 31 30 31 33 43 52 43 50 56 46 50 54 54 44 46 57 55 57
Wind_Direction_500mb
244 233 255 265 244 253 260 260 267 282 270 279 288 291 287 284 285 286 285 285 281 278
246 245 246 274 258 251 248 258 272 298 284 280 282 284 285 289 289 291 287 284 287 285
253 256 262 253 262 262 265 275 288 278 277 283 288 290 296 300 298 293 290 289 288 289
260 266 257 256 266 267 266 283 296 309 318 316 305 302 304 302 303 304 306 304 301 302
244 248 266 267 259 273 283 310 324 319 314 310 310 312 308 298 305 307 312 314 313 317
253 263 276 260 255 279 290 306 314 314 318 321 319 317 311 309 315 310 309 308 309 312
166 143 214 255 246 243 279 309 313 318 324 327 325 314 315 318 316 318 315 314 315 318
188 218 206 201 266 294 302 307 323 326 323 319 316 325 333 335 330 324 313 311 313 314
172 192 258 273 276 288 312 322 323 330 325 321 319 319 314 321 322 315 317 320 308 310
229 232 234 293 319 319 316 317 332 330 322 323 323 323 317 320 305 309 301 315 319 305
223 317 318 312 314 317 319 313 306 322 322 316 318 313 317 319 327 300 307 310 306 304
350 343 334 328 328 312 311 300 301 297 305 322 333 333 332 326 322 304 305 307 295 295
329 333 327 320 315 319 309 287 282 300 314 305 295 301 326 321 320 315 314 315 304 294
323 323 314 313 318 323 322 300 301 315 319 313 323 289 323 311 315 313 313 317 313 308
Wind_Speed_850mb
43 33 29 37 36 35 34 36 31 29 31 38 40 42 41 48 45 43 48 48 48 56
35 42 30 39 44 34 34 34 32 39 36 36 43 47 51 51 52 52 52 54 57 60
32 28 30 44 44 35 32 23 35 32 32 38 40 38 39 41 44 48 50 50 54 55
25 35 42 44 44 32 27 32 26 21 19 23 27 34 31 30 31 35 40 40 41 42
44 30 32 37 22 22 23 21 20 26 29 32 32 34 31 31 35 32 30 31 33 32
30 27 26 14 14 19 13 16 21 23 26 30 32 35 33 28 30 31 35 35 38 42
8 10 9 11 10 8 14 24 31 39 43 42 44 36 34 32 31 31 31 32 35 35
14 18 11 9 5 16 26 31 32 37 44 51 43 27 31 30 32 37 38 36 36 38
18 15 12 24 27 23 23 33 38 44 41 23 26 32 28 37 40 38 35 37 36 37
18 14 11 11 17 25 35 34 30 29 20 25 32 32 34 43 43 43 37 41 40 40
2 9 14 18 19 27 30 25 29 30 29 34 43 41 39 41 40 35 43 47 41 46
7 10 11 15 23 27 31 27 27 26 31 39 39 37 40 43 48 46 50 49 44 44
16 19 22 27 26 31 26 30 27 33 39 37 45 37 48 52 56 55 46 39 43 44
22 23 25 27 31 30 31 33 43 52 43 50 56 46 50 54 54 44 46 57 55 57
Wind_Direction_850mb
244 233 255 265 244 253 260 260 267 282 270 279 288 291 287 284 285 286 285 285 281 278
246 245 246 274 258 251 248 258 272 298 284 280 282 284 285 289 289 291 287 284 287 285
253 256 262 253 262 262 265 275 288 278 277 283 288 290 296 300 298 293 290 289 288 289
260 266 257 256 266 267 266 283 296 309 318 316 305 302 304 302 303 304 306 304 301 302
244 248 266 267 259 273 283 310 324 319 314 310 310 312 308 298 305 307 312 314 313 317
253 263 276 260 255 279 290 306 314 314 318 321 319 317 311 309 315 310 309 308 309 312
166 143 214 255 246 243 279 309 313 318 324 327 325 314 315 318 316 318 315 314 315 318
188 218 206 201 266 294 302 307 323 326 323 319 316 325 333 335 330 324 313 311 313 314
172 192 258 273 276 288 312 322 323 330 325 321 319 319 314 321 322 315 317 320 308 310
229 232 234 293 319 319 316 317 332 330 322 323 323 323 317 320 305 309 301 315 319 305
223 317 318 312 314 317 319 313 306 322 322 316 318 313 317 319 327 300 307 310 306 304
350 343 334 328 328 312 311 300 301 297 305 322 333 333 332 326 322 304 305 307 295 295
329 333 327 320 315 319 309 287 282 300 314 305 295 301 326 321 320 315 314 315 304 294
323 323 314 313 318 323 322 300 301 315 319 313 323 289 323 311 315 313 313 317 313 308